User: anonymous   Login
Location: Unspecified
(0.0000°N, 0.0000°E)
Time: 09:18:47
(UTC+02:00)
Language:

Cosmos 1833 Rocket - Orbit

View from above orbital plane
View from above orbital plane
View from above satellite
View from above satellite

Ground track
Ground track

The orbit data is extracted from the following two-line orbital elements,

1 17590U 87027B   17145.53739928 +.00000252 +00000-0 +14990-3 0  9995
2 17590 071.0024 197.6707 0006215 318.6507 041.4145 14.16741592560683
Epoch (UTC): 25 May 2017 12:53:51
Eccentricity: 0.0006215
inclination: 71.0024°
perigee height: 832 km
apogee height: 841 km
right ascension of ascending node: 197.6707°
argument of perigee: 318.6507°
revolutions per day: 14.16741592
mean anomaly at epoch: 41.4145°
orbit number at epoch: 56068

The dashed part of the orbit path shows where the satellite is in the earth's shadow,  

DLR